Tracking 30106 objects as of 23-Jan-2025
HD Live streaming from Space Station
objects crossing your sky now

COSMOS 1823 DEB

Track COSMOS 1823 DEB now!
10-day predictions


NORAD ID: 18757
Int'l Code: 1987-020AJ
Perigee: 1,111.3 km
Apogee: 1,164.9 km
Inclination: 73.7 °
Period: 107.9 minutes
Semi major axis: 7509 km
RCS: 0.0664 m2 (small)
Launch date: February 20, 1987
Source: Commonwealth of Independent States (former USSR) (CIS)
Launch site: PLESETSK MISSILE AND SPACE COMPLEX (PKMTR)

Note: This is SATELLITE DEBRIS
Your satellite tracking list
Your tracking list is empty




NASA's NSSDC Master Catalog

Two Line Element Set (TLE):
1 18757U 87020AJ  25021.88410480  .00011280  00000-0  22597-1 0  9996
2 18757  73.7137 338.8973 0035654 271.6582 150.6171 13.34204919740955
Source of the keplerian elements: AFSPC